COSMOS 249 DEB, 3606

Orbit data source: Space-Track

COSMOS 249 DEB, 3606 is space debris in LEO originally from a launch on Sun, 20 Oct 1968 UTC launched from the Tyuratam Missile And Space Complex (TTMTR). Debris objects in space refer to the collection of defunct objects orbiting the Earth. Examples of debris include non-operational satellites, rocket bodies, and fragments generated from explosions, collisions, or faulty payload assembly.

Loading next visibility...
Identifier
3606, 1968-091Y
Orbit
LEO
Country
Flag of CISCIS
Related business
Manufacturer
Unknown
Mission
Spacecraft
Bus & Motor
Unknown
Mass
Unknown
Launch date (UTC)
1968-10-20 (57 years ago)
Launch vehicle
Unknown
Launch site
Tyuratam Missile And Space Complex (TTMTR)
Object type
Payload
Rocket body
Debris
Shape & HBR
Unknown
Radar Cross Section
Small (<0.1 m²)

Expand to show TLE details & history
Last TLE update: 20 hours ago

TLE from 20 hours ago
0 COSMOS 249 DEB
1 03606U 68091Y   25257.92759314  .00000421  00000-0  41082-3 0  9995
2 03606  62.2534  79.2598 0738217 220.7526 133.5962 13.05350012648727
Epoch: 2025-09-14T22:15Z
TLE epoch observation values (Epoch: 2025-09-14T22:15:44.047Z)
Latitude
-0.00002°
Longitude
111.18668°
Altitude
1,650.901 km
Speed
6.857 km/s
True Right ascension
05h 17m 02s
True Declination
0° 00' 00"
Sunlit
Object was in daylight at epoch
Visualization orbit readout
Latitude
Unknown
Longitude
Unknown
Altitude
Unknown
Speed
Unknown
Apparent Right ascension
Unknown
Apparent Declination
Unknown
Sunlit
N/A
Visualization observer readout
Local Sidereal Time
11:09:17
Azimuth
Unknown
Elevation
Unknown
Doppler factor
Unknown
Orbital elements
Apogee altitude
1,802.583 km
Perigee altitude
677.788 km
Semi-major axis
7,618.323 km
Eccentricity
0.07382
Inclination
62.2534°
RAAN
79.2598°
Arg. of periapsis
220.7526°
True anomaly
139.34572°
Mean anomaly
133.5962°
Eccentric anomaly
136.50732°
Mean motion
3.26403 °/min
Orbital period
110.29 mins
BSTAR
0.00041082
Loading maneuver chart data...
Computing Atmospheric mass density...

Documentation

Showing up to 5 results
|